Location: Archemont
(49.1579°N, 1.7598°E)
Time: 12:11:48
(UTC+00:00)

Lacrosse 5 rocket - Visible Passes

Search period start: 28 September 2023 00:00
Search period end: 08 October 2023 00:00
Orbit: 449 x 603 km, 57.0° (Epoch: 27 September)

Date Brightness Start Highest point End Pass type
(mag) Time Alt. Az. Time Alt. Az. Time Alt. Az.
28 Sep 3.0 03:45:11 19° S 03:47:02 27° SE 03:50:23 10° ENE visible
29 Sep 2.6 03:33:10 28° SSE 03:34:03 30° SE 03:37:32 10° ENE visible
29 Sep 1.4 05:08:35 10° WSW 05:12:34 56° NNW 05:16:21 10° NE visible
30 Sep 2.4 03:21:01 34° SE 03:21:02 34° SE 03:24:38 10° ENE visible
30 Sep 1.6 04:56:12 13° WSW 04:59:36 51° NNW 05:03:22 10° NE visible
01 Oct 2.6 03:08:46 35° ESE 03:08:46 35° ESE 03:11:42 10° ENE visible
01 Oct 1.7 04:43:56 18° W 04:46:38 47° NNW 04:50:22 10° NE visible
02 Oct 3.0 02:56:25 30° E 02:56:25 30° E 02:58:43 10° ENE visible
02 Oct 1.8 04:31:36 24° W 04:33:38 44° NNW 04:37:20 10° NE visible
03 Oct 3.5 02:44:00 24° ENE 02:44:00 24° ENE 02:45:42 10° ENE visible
03 Oct 1.9 04:19:10 29° WNW 04:20:36 41° NNW 04:24:18 10° NE visible
04 Oct 3.9 02:31:31 18° ENE 02:31:31 18° ENE 02:32:39 10° ENE visible
04 Oct 2.0 04:06:41 34° NW 04:07:34 38° NNW 04:11:13 10° NE visible
05 Oct 4.3 02:18:59 14° ENE 02:18:59 14° ENE 02:19:34 10° ENE visible
05 Oct 2.1 03:54:08 35° NNW 03:54:30 36° NNW 03:58:07 10° NE visible
06 Oct 4.6 02:06:23 10° ENE 02:06:23 10° ENE 02:06:28 10° ENE visible
06 Oct 2.3 03:41:33 34° NNW 03:41:33 34° NNW 03:44:59 10° NE visible
06 Oct 2.8 05:17:32 10° NW 05:20:51 25° N 05:24:03 10° ENE visible
07 Oct 2.6 03:28:55 31° N 03:28:55 31° N 03:31:50 10° NE visible
07 Oct 2.8 05:04:25 10° NW 05:07:46 26° N 05:10:58 10° ENE visible
